SOYUZ-TMA 19M

Last updated on Sat Jun 18 2016 17:36:53 GMT+0000 (Coordinated Universal Time)

1 41124U 15076A 16169.53733502 .00006753 00000-0 10730-3 0 9997 2 41124 51.6442 56.2806 0000279 346.7169 78.0992 15.54600444 5044
UTC large
Height (km)
Speed (km/s)
/
Latitude / Longitude
Inclination (degrees)
Orbital Period (minutes)
Azimuth
Elevation
Range (km)
Doppler Factor

Next 0 passes for location: London (51.5072 / 0.1276)

Sorry there are no passes over London.